सभी
Condobolin Airport (Condobolin, NSW) CBX मौसम
|
Condobolin, NSW (CBX / YCDO)
स्वच्छ आकाश
शांत हवाएं |
|
18 °C |
There is no TAF data available at CBX or any nearby airports.
Recent CBX METAR history
| Date | Time (AEST) | Flight Rules | Wind Dir. | Speed | Type | Height AGL (ft) | Visibility | Temp (°C) | Temp (°F) | Dew Point (°C) | Dew Point (°F) | Rel. Humid. | Pressure | Density Altitude | Remarks |
|---|---|---|---|---|---|---|---|---|---|---|---|---|---|---|---|
| 04-मई | 16:00 | n/a | 10° | 3 kt | Missing | 18° | 64° | 11° | 51° | 64% | 1015 mb | 957 ft | |||
| 04-मई | 15:00 | n/a | 260° | 3 kt | Missing | 17° | 62° | 12° | 53° | 72% | 1015 mb | 837 ft | |||
| 04-मई | 14:00 | n/a | 280° | 4 kt | Missing | 17° | 62° | 12° | 53° | 72% | 1016 mb | 808 ft | |||
| 04-मई | 13:00 | n/a | 290° | 4 kt | Missing | 16° | 60° | 13° | 55° | 82% | 1016 mb | 688 ft | |||
| 04-मई | 12:00 | n/a | 290° | 3 kt | Missing | 16° | 60° | 13° | 55° | 82% | 1016 mb | 688 ft | |||
| 04-मई | 11:00 | n/a | 190° | 1 kt | Missing | 15° | 59° | 12° | 53° | 82% | 1017 mb | 538 ft | |||
| 04-मई | 10:00 | n/a | 270° | 5 kt | Missing | 15° | 59° | 13° | 55° | 88% | 1017 mb | 538 ft | |||
| 04-मई | 09:00 | n/a | 270° | 5 kt | Missing | 14° | 57° | 13° | 55° | 94% | 1017 mb | 418 ft | |||
| 04-मई | 08:00 | n/a | 250° | 6 kt | Missing | 14° | 57° | 14° | 57° | 100% | 1017 mb | 418 ft | |||
| 04-मई | 07:00 | n/a | 250° | 6 kt | Missing | 15° | 59° | 14° | 57° | 94% | 1016 mb | 568 ft | |||
| 04-मई | 06:00 | n/a | 240° | 10 kt | Missing | 15° | 59° | 14° | 57° | 94% | 1015 mb | 597 ft | |||
| 04-मई | 05:00 | n/a | 360° | 10 kt | Missing | 18° | 64° | 17° | 62° | 94% | 1015 mb | 957 ft | |||
| 04-मई | 04:00 | n/a | 10° | 10 kt | Missing | 18° | 64° | 17° | 62° | 94% | 1015 mb | 957 ft | |||
| 04-मई | 03:00 | n/a | 10° | 11 kt | Missing | 18° | 64° | 17° | 62° | 94% | 1015 mb | 957 ft | |||
| 04-मई | 02:00 | n/a | 20° | 11 kt | Missing | 18° | 64° | 17° | 62° | 94% | 1016 mb | 928 ft | |||
| 04-मई | 01:00 | n/a | 30° | 9 kt | Missing | 18° | 64° | 17° | 62° | 94% | 1016 mb | 928 ft | |||
| 04-मई | 00:00 | n/a | 30° | 7 kt | Missing | 18° | 64° | 17° | 62° | 94% | 1017 mb | 898 ft | |||
| 03-मई | 23:00 | n/a | 20° | 8 kt | Missing | 18° | 64° | 17° | 62° | 94% | 1017 mb | 898 ft | |||
| 03-मई | 22:00 | n/a | 10° | 7 kt | Missing | 18° | 64° | 17° | 62° | 94% | 1018 mb | 868 ft | |||
| 03-मई | 21:00 | n/a | 10° | 6 kt | Missing | 18° | 64° | 17° | 62° | 94% | 1018 mb | 868 ft | |||
| 03-मई | 20:00 | n/a | 360° | 7 kt | Missing | 18° | 64° | 17° | 62° | 94% | 1018 mb | 868 ft | |||
| 03-मई | 19:00 | n/a | 350° | 4 kt | Missing | 19° | 66° | 18° | 64° | 94% | 1017 mb | 1,018 ft | |||
| 03-मई | 18:00 | n/a | 10° | 7 kt | Missing | 19° | 66° | 18° | 64° | 94% | 1016 mb | 1,048 ft | |||
| 03-मई | 17:00 | n/a | 190° | 3 kt | Missing | 19° | 66° | 18° | 64° | 94% | 1015 mb | 1,077 ft |
लॉगिन
| Your browser is unsupported. अपना ब्राऊजर अपग्रेड करें |
